Location: Altmatt
(47.1333°N, 8.7000°E)
Time: 08:24:44
(UTC+00:00)

Cosmos 1452 Rocket - Pass Details

Date: 13 July 2020
Orbit: 768 x 774 km, 74.1° (Epoch: 04 August)

Event Time Altitude Azimuth Distance (km) Brightness Sun altitude
Rises 22:00:33 0° 336° (NNW) 3,254 8.5 -18.3°
Reaches altitude 10° 22:02:56 10° 334° (NNW) 2,322 7.3 -18.4°
Maximum altitude 22:08:11 72° 251° (WSW) 809 3.5 -18.7°
Enters shadow 22:10:24 35° 175° (S) 1,223 4.0 -18.9°
